This is the latest recevied weather packets stored in our database for station/object WB4ZUT. If no packets are shown the sender has not sent any weather packets the latest 10 day(s).
| Time | Temp. | Humidity | Pressure | Rain* | Wind** | Luminosity | Snow |
|---|---|---|---|---|---|---|---|
| 1777625258 | 12.22° C | 78% | 1013.6 hPa | 0 mm | - | 0 W/m² | - |
| 1777624954 | 12.22° C | 78% | 1013.9 hPa | 0 mm | - | 0 W/m² | - |
| 1777624651 | 12.22° C | 78% | 1013.8 hPa | 0 mm | - | 0 W/m² | - |
| 1777624346 | 12.22° C | 78% | 1014 hPa | 0 mm | - | 0 W/m² | - |
| 1777624044 | 12.22° C | 78% | 1013.9 hPa | 0 mm | - | 0 W/m² | - |
| 1777623741 | 12.22° C | 78% | 1013.8 hPa | 0 mm | - | 0 W/m² | - |
| 1777623437 | 12.22° C | 78% | 1014.1 hPa | 0 mm | - | 0 W/m² | - |
| 1777623135 | 11.67° C | 78% | 1013.9 hPa | 0 mm | - | 0 W/m² | - |
| 1777622832 | 12.22° C | 79% | 1013.8 hPa | 0 mm | - | 0 W/m² | - |
| 1777622528 | 12.22° C | 77% | 1013.8 hPa | 0 mm | - | 0 W/m² | - |
| 1777622225 | 11.67° C | 76% | 1013.7 hPa | 0 mm | - | 0 W/m² | - |
| 1777621922 | 11.67° C | 79% | 1013.6 hPa | 0 mm | - | 0 W/m² | - |
| 1777621616 | 11.67° C | 79% | 1013.8 hPa | 0 mm | - | 0 W/m² | - |
| 1777621314 | 11.67° C | 79% | 1013.9 hPa | 0 mm | - | 0 W/m² | - |
| 1777621009 | 11.67° C | 80% | 1014 hPa | 0 mm | - | 0 W/m² | - |
| 1777620705 | 11.67° C | 79% | 1014 hPa | 0 mm | - | 0 W/m² | - |
| 1777620401 | 11.67° C | 79% | 1014.2 hPa | 0 mm | - | 0 W/m² | - |
| 1777620099 | 11.67° C | 79% | 1014.1 hPa | 0 mm | - | 0 W/m² | - |
| 1777619795 | 11.67° C | 79% | 1014.4 hPa | 0 mm | - | 0 W/m² | - |
| 1777619490 | 11.67° C | 82% | 1014.5 hPa | 0 mm | - | 0 W/m² | - |
| 1777619186 | 11.11° C | 84% | 1014.5 hPa | 0 mm | - | 0 W/m² | - |
| 1777618881 | 11.11° C | 86% | 1014.6 hPa | 0 mm | - | 0 W/m² | - |
| 1777618580 | 10.56° C | 88% | 1014.5 hPa | 0 mm | - | 0 W/m² | - |
| 1777618277 | 10.56° C | 89% | 1014.4 hPa | 0 mm | - | 0 W/m² | - |
| 1777617974 | 10.56° C | 90% | 1014.5 hPa | 0 mm | - | 0 W/m² | - |
* Rain latest hour (hover to see other rain measurements)
** Current wind speed in m/s (hover to see current wind gust speed)